Theta_e
316 317 317 318 320 323 325 326 328 329 329 329 330 331 331 328 327 327 327 327 328 329 329 328 329 333 332 334 337 336 336 337 340 339 336 334 334 334 332 333 334 335 334 334
318 318 319 318 319 320 322 324 326 328 329 330 330 330 329 329 328 327 328 329 329 329 329 327 332 335 334 336 336 336 336 338 337 336 334 333 333 332 334 334 335 335 334 333
316 319 318 318 319 320 322 323 325 327 328 329 329 330 330 329 329 327 326 326 328 329 328 327 334 336 336 337 337 337 338 338 336 334 334 335 335 334 333 332 333 334 332 333
316 316 319 319 319 320 321 322 324 325 326 328 328 331 329 328 328 328 328 329 329 328 328 327 336 337 337 337 337 338 338 337 336 336 335 335 332 332 332 333 331 334 333 332
314 317 317 319 320 320 321 322 324 325 325 326 326 326 326 326 327 329 330 330 329 329 326 331 336 336 337 337 337 338 338 337 337 333 335 335 332 330 331 331 332 334 331 331
314 315 318 318 319 320 320 321 323 325 325 327 326 326 327 327 328 329 330 330 329 328 328 333 335 336 336 336 337 337 337 337 336 335 335 333 333 333 332 333 333 331 329 329
311 314 317 318 318 320 321 322 323 325 327 329 325 327 328 327 328 330 330 330 328 326 333 335 336 335 336 336 336 336 336 337 336 336 334 333 334 334 333 333 332 332 330 328
311 312 316 318 318 320 321 322 323 325 327 326 326 328 328 330 330 329 329 328 326 333 334 335 335 335 335 336 336 335 337 336 336 334 333 333 333 333 333 333 330 330 332 330
315 311 315 317 318 319 321 323 323 325 326 326 328 330 331 330 330 329 329 329 327 334 335 335 335 335 335 335 335 336 336 335 334 333 333 332 332 333 334 333 330 330 329 330
317 317 313 317 318 319 320 322 323 326 326 328 330 330 332 328 327 328 327 326 327 334 335 335 335 335 335 335 335 336 335 334 333 332 332 332 332 333 333 332 330 332 331 330
315 319 320 316 320 319 320 322 322 324 325 328 330 332 330 329 328 329 328 327 327 334 335 335 335 335 335 335 335 335 332 332 332 332 331 332 332 332 332 331 332 330 332 329
315 318 323 320 320 319 320 322 324 326 328 327 330 331 326 327 328 330 332 330 330 335 335 335 334 334 335 335 335 332 332 331 331 331 331 331 332 332 331 331 331 331 330 329
315 319 321 325 323 320 320 321 324 326 328 329 329 331 325 329 331 330 333 333 335 334 334 334 334 334 334 335 332 331 330 330 330 330 329 332 332 333 332 332 333 333 330 330
311 316 320 326 324 320 320 321 324 326 328 329 329 326 327 330 332 333 334 335 334 334 334 333 334 334 334 333 330 329 329 329 329 328 330 331 332 333 332 332 333 331 331 330
313 317 315 318 321 322 320 321 322 325 326 328 328 327 326 331 332 333 334 334 334 333 333 333 333 333 334 332 328 328 328 329 328 328 330 332 332 333 332 332 332 332 331 330
313 319 317 316 317 321 321 321 322 323 325 327 326 325 325 327 326 330 332 333 333 333 333 333 333 333 333 331 327 328 328 328 327 329 330 332 332 333 332 332 333 328 332 331
314 318 318 320 318 321 321 322 322 323 325 325 325 322 324 324 325 327 332 333 333 333 333 333 333 333 333 330 327 328 328 328 327 328 331 332 331 333 331 333 332 327 328 328
313 315 318 318 319 328 322 322 322 322 322 323 323 323 324 324 326 327 330 332 332 333 333 333 333 333 333 330 327 327 328 327 327 328 330 332 332 332 332 332 332 329 326 326
311 313 319 321 324 324 324 325 322 322 322 323 323 323 323 323 324 326 331 332 332 334 334 334 333 334 334 330 327 327 327 326 327 327 329 331 330 332 332 332 331 331 332 331
312 314 318 320 327 325 328 324 324 326 329 325 326 327 328 327 325 333 330 331 333 332 334 334 334 334 334 330 327 327 327 325 326 326 326 330 330 330 331 332 332 331 331 330
313 315 317 320 323 326 323 324 323 326 329 325 325 326 326 328 328 328 328 329 330 334 334 335 334 334 335 330 327 327 327 325 326 326 326 328 329 330 331 331 333 331 331 330
314 316 317 318 323 330 321 324 327 325 323 323 324 325 325 326 326 327 328 329 329 332 334 335 335 335 335 330 328 327 327 326 325 327 326 327 329 329 331 331 333 333 331 330
317 318 321 322 323 319 318 319 319 320 322 323 323 324 325 327 328 329 329 331 331 331 334 335 335 335 335 331 328 327 327 326 325 326 326 327 330 328 329 330 333 332 331 330
313 315 319 320 318 318 318 317 317 318 320 320 322 323 324 326 328 331 332 332 333 331 334 334 335 335 335 332 328 327 327 326 325 326 327 327 330 328 328 327 331 331 330 327
312 314 317 317 314 317 317 317 316 317 319 318 320 322 323 325 327 331 332 333 333 333 332 334 335 335 336 333 329 327 327 326 325 326 327 327 328 329 328 325 327 329 330 327
313 314 316 316 314 314 314 315 316 317 317 316 318 321 322 323 325 329 333 334 335 333 331 334 335 335 336 334 330 327 327 326 327 327 327 327 327 328 330 328 324 325 328 327
Wind_Speed
29 19 27 42 38 35 33 25 31 32 29 30 32 34 24 25 34 36 34 28 32 34 35 28 20 16 14 13 14 17 18 22 22 21 20 19 16 12 11 11 12 12 14 13
24 30 45 28 32 33 33 32 32 29 28 27 27 29 29 24 26 36 37 32 31 35 31 22 11 8 8 10 13 16 19 22 22 19 18 15 12 11 9 9 10 11 12 16
30 42 26 34 33 30 33 32 30 31 25 25 27 29 31 30 32 35 40 43 39 32 26 24 10 6 7 11 14 17 19 20 22 18 17 14 11 10 9 9 8 11 12 14
28 34 33 33 36 34 33 30 28 26 22 21 22 22 31 24 25 24 35 34 26 26 27 21 9 9 11 13 15 18 19 21 19 19 14 12 9 8 7 7 8 8 11 12
32 30 36 37 42 32 38 24 27 25 20 24 29 18 24 21 24 24 23 27 28 28 23 14 12 13 13 15 17 19 21 20 18 15 12 10 8 6 5 6 9 10 14 15
31 33 29 39 35 30 29 28 27 21 20 20 27 21 26 23 26 20 23 27 24 25 18 11 14 16 17 18 19 20 21 18 15 13 11 9 8 6 6 6 8 13 11 11
31 30 29 32 30 36 29 26 18 19 20 26 19 21 24 23 22 22 23 28 18 15 16 17 19 20 22 23 22 21 20 17 14 12 9 7 5 5 5 6 9 7 7 6
24 27 33 29 30 36 34 31 17 32 14 20 24 26 22 22 24 27 27 12 12 13 16 18 21 23 24 23 22 20 18 16 14 11 8 6 5 3 4 7 5 3 4 6
18 30 29 33 25 27 39 27 35 24 23 20 17 17 18 18 17 13 15 22 19 17 18 21 23 24 24 23 21 19 17 15 13 11 8 6 5 4 4 6 4 4 3 4
18 13 33 28 31 30 33 28 23 21 28 24 16 14 8 6 10 15 15 16 22 19 20 23 25 25 23 22 20 18 15 14 12 10 7 5 6 4 3 7 2 4 6 7
18 7 19 34 33 30 25 24 31 21 20 17 16 10 9 6 8 12 15 19 26 24 24 26 26 25 23 21 19 17 15 13 12 10 7 5 5 3 3 4 2 4 7 8
13 5 16 19 23 31 31 29 30 17 26 18 9 7 6 3 13 10 13 21 24 24 26 27 27 26 24 21 19 16 15 13 12 9 7 5 4 2 3 2 4 3 8 8
7 9 12 6 18 29 29 33 26 27 15 22 13 10 6 3 5 10 8 21 24 25 27 28 27 25 23 21 18 16 15 13 11 9 8 6 4 2 2 3 2 5 9 8
13 14 17 7 11 22 32 33 28 27 16 17 21 12 9 11 12 9 10 15 23 27 29 28 26 25 23 21 18 16 15 13 12 9 8 6 5 3 5 4 4 7 7 11
5 18 25 10 19 27 30 26 29 27 24 18 20 15 9 10 11 10 14 19 23 26 28 28 27 26 24 21 18 17 15 13 12 10 9 7 4 6 5 6 6 6 7 10
6 12 19 14 17 30 11 27 28 25 29 19 12 16 12 5 11 8 10 19 22 25 26 27 26 25 24 22 20 18 16 14 13 11 10 7 8 8 7 8 7 8 8 8
7 8 9 7 15 23 13 18 20 20 27 19 15 7 8 8 2 4 9 19 23 23 24 26 27 26 24 22 21 19 17 16 14 12 11 10 7 7 7 8 8 8 8 8
12 10 7 4 10 6 10 15 13 19 19 19 14 14 9 6 5 7 9 18 22 22 22 24 25 25 24 22 21 19 18 17 16 14 12 11 8 7 8 7 8 7 9 8
13 8 4 6 12 6 6 5 12 15 14 4 9 17 11 16 9 10 15 11 19 19 20 22 23 24 24 23 22 20 19 18 17 15 14 13 10 8 8 7 7 8 9 8
13 9 4 5 7 8 6 8 5 4 10 9 7 5 9 11 5 8 14 14 13 21 19 21 23 24 25 24 23 22 20 19 18 16 15 14 11 10 8 7 6 7 8 7
9 6 8 7 7 6 9 12 3 11 6 6 7 6 5 7 12 12 12 10 10 8 20 20 24 25 25 25 25 24 21 20 19 17 15 15 13 12 9 8 5 9 9 7
5 3 4 5 3 1 18 3 3 6 6 8 8 8 7 9 14 14 11 10 7 8 17 22 24 25 25 25 25 24 23 20 19 18 17 16 14 12 10 9 9 10 7 7
3 3 5 6 4 7 11 16 13 12 10 12 10 10 9 8 10 10 10 8 9 8 14 22 24 25 26 26 25 25 23 22 22 20 19 17 15 14 12 12 10 10 9 6
4 8 3 6 11 5 12 12 14 12 10 12 12 12 12 10 10 8 7 6 8 10 14 23 25 27 27 27 25 24 24 24 23 22 21 19 18 16 14 12 12 10 10 8
4 10 10 4 8 5 15 11 14 15 12 14 15 14 14 12 12 10 8 6 7 10 14 22 27 27 27 27 26 25 25 25 24 23 22 21 19 19 16 14 13 11 11 11
2 5 4 3 13 16 15 17 13 14 13 17 17 16 14 13 13 13 10 6 6 9 14 21 25 26 27 29 28 27 27 27 27 26 24 23 21 21 18 17 16 16 16 16
Wind_Direction
204 210 218 221 220 235 241 242 247 248 246 241 258 263 256 258 264 262 260 255 267 280 285 289 281 257 261 236 217 208 192 187 186 187 190 197 205 211 221 232 239 244 256 259
215 215 222 223 231 229 244 250 253 260 261 258 253 257 269 255 260 268 271 268 265 276 278 277 263 250 241 213 197 187 179 179 177 185 188 198 203 217 226 237 239 248 264 263
220 226 229 228 232 234 234 234 243 251 258 259 262 267 261 260 262 264 269 272 272 273 266 267 228 214 199 192 182 174 169 172 167 180 181 179 189 195 228 240 259 260 275 257
233 237 235 228 233 228 235 229 240 251 257 257 251 265 257 263 264 259 263 261 257 256 265 247 189 192 190 181 170 162 162 162 167 173 182 187 197 219 224 228 256 252 266 253
240 229 230 239 226 226 242 234 236 238 250 259 254 258 270 275 268 265 253 259 263 255 255 204 188 187 178 169 162 158 158 160 173 163 179 191 199 227 241 245 261 269 259 257
244 242 233 234 242 231 240 234 243 238 238 245 246 250 265 263 265 260 256 258 258 244 227 177 176 173 167 157 155 156 158 164 164 169 176 175 197 203 229 262 266 284 269 261
242 245 247 235 225 239 224 224 225 231 230 245 248 245 261 269 271 262 257 255 256 238 162 168 168 165 159 157 157 158 162 161 161 168 172 179 188 211 248 267 276 282 266 234
226 230 231 228 227 217 223 213 217 219 218 239 232 243 256 266 250 255 242 214 234 162 169 168 167 162 161 158 159 163 163 160 164 168 171 181 198 234 276 270 283 255 253 213
254 231 230 226 226 229 215 215 220 247 231 243 255 240 229 248 248 242 238 234 224 173 169 167 164 162 162 159 162 165 163 165 166 171 176 181 211 234 256 291 256 229 201 164
273 266 226 228 222 235 232 210 212 227 240 248 232 253 257 216 224 217 225 210 186 172 171 166 162 161 162 161 162 162 165 167 170 172 179 188 209 231 272 288 242 193 147 160
288 272 259 222 203 216 214 211 210 220 229 234 252 258 229 260 254 265 198 187 175 171 171 164 161 162 162 161 162 163 165 167 171 173 176 186 216 209 279 297 201 191 158 162
256 259 260 229 216 214 213 217 201 219 216 238 292 200 97 229 225 198 166 164 160 170 168 164 163 162 162 162 164 165 167 168 172 173 177 193 202 214 285 121 234 160 151 164
349 233 259 216 231 205 222 208 209 219 225 212 231 200 132 237 201 202 135 139 154 166 165 163 164 165 165 165 165 168 167 168 170 171 175 184 188 194 169 152 146 152 157 167
298 265 261 239 260 197 214 206 207 199 217 191 225 116 178 172 152 113 127 151 164 166 164 164 166 167 168 167 169 168 167 168 168 168 172 174 194 145 137 126 130 131 155 153
274 250 242 241 303 307 200 215 205 199 209 222 198 226 174 126 88 105 138 159 158 163 168 168 170 169 169 169 168 169 168 169 167 166 168 168 178 150 158 122 133 150 148 158
255 276 259 247 263 282 248 210 200 209 204 227 165 197 217 53 126 139 155 169 171 170 174 172 173 171 172 171 169 171 170 168 167 164 164 159 151 151 160 134 143 151 141 145
283 301 251 224 237 269 231 202 208 196 199 214 220 191 213 222 248 193 143 184 180 179 178 176 175 174 174 172 170 172 170 168 166 163 162 155 161 150 161 150 155 162 160 146
267 291 292 219 250 215 198 207 231 202 199 213 218 230 235 236 169 202 123 181 184 182 183 179 177 175 175 171 170 169 171 170 168 164 163 157 154 153 155 171 161 171 157 163
240 273 299 179 209 80 175 72 189 207 186 194 241 219 228 217 228 48 9 354 188 186 182 181 180 176 175 172 171 170 173 172 172 169 167 163 160 157 145 144 164 163 144 153
218 221 237 238 225 204 322 8 31 311 131 37 10 355 0 341 201 63 2 352 2 189 182 178 179 179 176 174 172 172 176 176 177 172 170 167 167 161 159 156 178 153 138 135
202 216 249 275 249 100 11 338 208 208 77 18 21 20 342 297 313 340 329 329 340 324 179 179 180 182 180 177 175 175 178 180 178 173 171 170 168 165 167 152 161 143 130 118
186 228 234 233 253 121 343 16 14 49 60 35 22 17 338 312 298 304 301 293 285 289 185 181 180 181 182 182 179 178 181 179 177 176 173 172 170 163 169 152 149 142 143 132
263 339 307 2 84 191 39 63 47 31 20 23 7 2 346 310 299 300 293 280 261 243 201 186 182 180 183 186 186 182 181 178 178 177 176 174 172 166 167 155 160 160 134 138
203 301 266 307 355 340 65 37 28 16 7 358 350 357 351 339 321 310 295 278 243 220 200 188 185 183 185 187 189 187 182 179 179 179 178 177 175 172 169 164 162 163 159 153
321 318 337 59 338 64 20 2 354 354 356 352 348 354 350 344 346 338 317 287 248 218 201 193 191 188 188 188 189 188 186 182 181 181 181 180 180 178 178 172 173 174 171 170
27 344 15 315 325 324 326 325 326 330 337 339 340 343 348 352 347 345 333 316 270 228 210 200 196 192 191 190 189 189 189 186 184 181 184 185 184 184 185 182 185 185 187 185